[[{"header":{"parameterUnit":"m.s-1","parameterCategory":1,"la1":30.2991,"la2":30.254,"lo1":-89.0895,"lo2":-89.0444,"dy":0.0017,"dx":0.0017,"nx":28,"ny":28,"refTime":"2023-07-25T09:00:00:Z","depth":0,"parameterNumber":2,"parameterNumberName":"U-component_of_WINDS"},"data":[0,0,0,0,0,0,0,0,0,0,0,0,0,0,0,0,0,0,0,0,0,0,0,0,0,0,0,0,0,0,0,0,0,0,0,0,0,0,0,0,0,0,0,0,0,0,0,0,0,0,0,0,0,0,0,0,0,0,1.0361,1.0362,0,1.0442,1.0443,1.0444,1.047,1.047,1.047,1.0469,1.0551,1.0553,1.0556,0,0,0,0,0,0,0,0,0,0,0,0,0,1.0226,1.0229,1.0361,1.0362,1.0363,1.0442,1.0443,1.0444,1.0471,1.047,1.047,1.0469,1.055,1.0553,1.0556,0,0,0,0,0,0,0,0,0,0,0,0,0,1.0294,1.0229,1.0361,1.0386,1.0389,1.0442,1.0443,1.0444,1.0471,1.047,1.047,1.0469,1.0549,1.0553,1.0556,1.059,0,0,1.0568,1.0569,0,0,0,0,0,0,0,0,1.029,1.0299,1.0381,1.0384,1.0387,1.0446,1.0425,1.0493,1.0471,1.0439,1.0469,1.0469,1.0516,1.0523,1.0539,1.0594,1.0597,1.0568,1.057,1.0572,1.0573,0,0,0,0,0,0,0,1.0285,1.0295,1.0393,1.0382,1.0386,1.0392,1.0401,1.0438,1.048,1.0442,1.0444,1.0454,1.0518,1.0535,1.0541,1.0598,1.0568,1.0571,1.0574,1.0575,1.0683,1.0684,0,0,0,0,0,0,1.0277,1.0291,1.039,1.0395,1.0336,1.0395,1.0405,1.0427,1.0479,1.0487,1.0454,1.0455,1.0529,1.0537,1.0544,1.0586,1.0572,1.0575,1.0578,1.0683,1.0683,1.0684,0,0,0,0,0,0,1.0274,1.0285,1.0387,1.0344,1.0357,1.0398,1.0423,1.0429,1.0447,1.0488,1.0496,1.0464,1.0529,1.0539,1.0578,1.0589,1.0577,1.0581,1.0682,1.0683,1.0684,1.067,0,0,0,0,0,0,1.027,1.0284,1.0298,1.0344,1.0359,1.042,1.0423,1.0431,1.0453,1.0455,1.05,1.0507,1.0529,1.0572,1.0582,1.0594,1.0583,1.0681,1.0682,1.0683,1.0669,1.067,1.0671,0,0,0,0,0,1.0265,1.029,1.0298,1.031,1.0378,1.0421,1.043,1.0456,1.0454,1.0468,1.0494,1.0505,1.0586,1.0576,1.0587,1.06,1.068,1.0682,1.0683,1.0669,1.067,1.0671,0,0,0,0,0,0,1.0244,1.0297,1.0306,1.0348,1.038,1.0425,1.0443,1.0456,1.0488,1.0488,1.0518,1.0528,1.0565,1.0587,1.0575,1.0635,1.0634,1.0637,1.0619,1.062,1.0621,1.0615,1.0587,0,0,0,0,0,1.0244,1.0276,1.032,1.0352,1.0368,1.0403,1.0423,1.044,1.0474,1.0487,1.0517,1.0549,1.0581,1.0602,1.0635,1.0673,1.0682,1.0687,1.0688,1.0688,1.0691,1.0711,1.0714,1.0689,1.0689,1.0689,0,0,1.0245,1.0278,1.0296,1.0349,1.0376,1.0407,1.0414,1.0447,1.047,1.0492,1.0531,1.0554,1.0591,1.063,1.0648,1.0649,1.07,1.069,1.069,1.0692,1.0713,1.0715,1.0718,1.069,1.069,1.0689,0,0,1.0262,1.029,1.032,1.0347,1.0387,1.041,1.0417,1.0461,1.0477,1.0517,1.0534,1.0561,1.0617,1.0643,1.0663,1.0689,1.07,1.0699,1.0702,1.0722,1.0724,1.0726,1.0734,1.0737,1.0701,1.0701,1.0701,0,1.0257,1.0306,1.0333,1.0365,1.0388,1.041,1.0439,1.0463,1.0512,1.0527,1.0527,1.0597,1.0624,1.0668,1.0674,1.0691,1.0699,1.0694,1.0721,1.0724,1.0726,1.0734,1.0737,1.0701,1.0701,1.0701,1.0701,0,1.0298,1.0331,1.035,1.0396,1.0421,1.0451,1.0483,1.0504,1.0519,1.0542,1.0581,1.0614,1.0653,1.0665,1.068,1.0711,1.071,1.0716,1.0715,1.0727,1.0735,1.0739,1.07,1.07,1.07,1.0701,0,0,1.0304,1.0365,1.0372,1.0393,1.0439,1.0464,1.0495,1.0534,1.0551,1.0584,1.061,1.0656,1.0661,1.0684,1.0702,1.072,1.0737,1.0723,1.0724,1.0723,1.0773,1.0768,1.0771,1.0745,1.0745,1.0746,1.0769,0,1.0326,1.0383,1.0409,1.0454,1.0484,1.0505,1.0532,1.0562,1.0584,1.0612,1.0636,1.0668,1.0673,1.0687,1.0705,1.0731,1.0747,1.073,1.0768,1.0769,1.0758,1.0776,1.0771,1.0792,1.0773,1.0773,1.0774,0,1.036,1.0393,1.0441,1.0483,1.0496,1.052,1.0557,1.0584,1.0619,1.0633,1.0659,1.0676,1.0708,1.0706,1.075,1.0738,1.0755,1.077,1.0771,1.0775,1.0772,1.078,1.0799,1.0802,1.0779,1.0779,1.0779,0,1.0358,1.0415,1.0451,1.0468,1.0518,1.0534,1.0555,1.059,1.0611,1.0643,1.0657,1.0692,1.0711,1.0738,1.0763,1.0759,1.0805,1.0805,1.0817,1.0816,1.0825,1.0824,1.0847,1.0838,1.0838,1.0837,1.0837,0,1.038,1.0409,1.0451,1.0473,1.0505,1.0533,1.0564,1.0587,1.0617,1.0643,1.0664,1.0687,1.072,1.0748,1.0768,1.0801,1.081,1.0822,1.0827,1.082,1.0818,1.0831,1.083,1.0838,1.0838,1.0838,1.0838,0,1.0384,1.0413,1.0454,1.0498,1.0509,1.0531,1.0568,1.0589,1.0612,1.0645,1.0654,1.0689,1.0723,1.0752,1.0796,1.0809,1.0844,1.085,1.0832,1.0834,1.0845,1.0843,1.0876,1.0881,1.0869,1.0869,1.0869,0,1.0396,1.0418,1.0464,1.0483,1.0505,1.0535,1.0557,1.0586,1.0607,1.0648,1.0665,1.07,1.073,1.0783,1.0812,1.0845,1.0852,1.0861,1.0857,1.0849,1.0851,1.085,1.0852,1.0861,1.0861,1.0861,1.0861,0,1.0413,1.0426,1.0457,1.0493,1.0519,1.0548,1.0578,1.0593,1.0627,1.065,1.0685,1.0708,1.0753,1.0788,1.0824,1.0846,1.0859,1.0862,1.0867,1.086,1.0848,1.0854,1.0832,1.0861,1.0861,1.0861,1.0861,1.0861,1.0421,1.0441,1.0477,1.051,1.0536,1.0563,1.0586,1.0611,1.0641,1.068,1.0695,1.0731,1.0764,1.0815,1.0836,1.0864,1.0866,1.0872,1.0874,1.0875,1.0874,1.0844,1.0871,1.0871,1.0871,1.0871,1.0871,0,1.0438,1.0462,1.0493,1.0534,1.056,1.0571,1.0605,1.0626,1.0657,1.0687,1.0716,1.0756,1.0789,1.0821,1.0855,1.0871,1.0878,1.088,1.0878,1.0883,1.087,1.0863,1.0873,1.0873,1.0873,1.0873,1.0873,1.0873,1.0451,1.0486,1.0503,1.0551,1.0574,1.061,1.0628,1.0653,1.0677,1.0721,1.0748,1.0769,1.08,1.0837,1.0868,1.0876,1.0888,1.0887,1.0897,1.0884,1.0884,1.0883,1.0876,1.0889,1.0889,1.0907,1.0907,1.0907]},{"header":{"parameterUnit":"m.s-1","parameterCategory":1,"la1":30.2991,"la2":30.254,"lo1":-89.0895,"lo2":-89.0444,"dy":0.0017,"dx":0.0017,"nx":28,"ny":28,"refTime":"2023-07-25T09:00:00:Z","depth":0,"parameterNumber":3,"parameterNumberName":"V-component_of_WINDS"},"data":[0,0,0,0,0,0,0,0,0,0,0,0,0,0,0,0,0,0,0,0,0,0,0,0,0,0,0,0,0,0,0,0,0,0,0,0,0,0,0,0,0,0,0,0,0,0,0,0,0,0,0,0,0,0,0,0,0,0,2.61,2.6099,0,2.6021,2.602,2.6019,2.5936,2.5935,2.5934,2.5933,2.585,2.5849,2.5848,0,0,0,0,0,0,0,0,0,0,0,0,0,2.6175,2.6174,2.61,2.6099,2.6098,2.6021,2.602,2.6019,2.5937,2.5935,2.5934,2.5933,2.585,2.5849,2.5848,0,0,0,0,0,0,0,0,0,0,0,0,0,2.6124,2.6174,2.61,2.6048,2.6042,2.6022,2.602,2.6019,2.5937,2.5935,2.5934,2.5932,2.5851,2.5849,2.5847,2.5871,0,0,2.5842,2.5841,0,0,0,0,0,0,0,0,2.6127,2.6121,2.6056,2.6051,2.6045,2.5987,2.6016,2.5969,2.5937,2.5977,2.5933,2.5931,2.5897,2.5891,2.588,2.5867,2.5864,2.5842,2.5841,2.584,2.584,0,0,0,0,0,0,0,2.6131,2.6124,2.6069,2.6055,2.6049,2.6027,2.6018,2.6007,2.5947,2.5973,2.5967,2.5959,2.5893,2.5882,2.5877,2.5863,2.5842,2.584,2.5839,2.5839,2.5863,2.5865,0,0,0,0,0,0,2.6143,2.6128,2.6071,2.6066,2.6083,2.6027,2.6017,2.6007,2.5947,2.5936,2.5961,2.5955,2.5886,2.588,2.5874,2.5897,2.584,2.5839,2.5838,2.5862,2.5864,2.5865,0,0,0,0,0,0,2.6145,2.6138,2.6074,2.6095,2.6086,2.6027,2.6018,2.6007,2.5995,2.5938,2.5926,2.596,2.5884,2.5877,2.5872,2.5893,2.5838,2.5836,2.586,2.5862,2.5864,2.5943,0,0,0,0,0,0,2.6147,2.614,2.6149,2.6096,2.6085,2.6075,2.6019,2.6006,2.5993,2.5985,2.5934,2.5924,2.5882,2.5875,2.5871,2.5889,2.5835,2.5857,2.5861,2.5864,2.5938,2.5948,2.5956,0,0,0,0,0,2.615,2.6174,2.615,2.6144,2.6096,2.6077,2.607,2.6022,2.5995,2.6003,2.5966,2.5926,2.5892,2.5876,2.587,2.5888,2.5856,2.586,2.5863,2.5934,2.5946,2.5956,0,0,0,0,0,0,2.623,2.6166,2.6139,2.6147,2.6118,2.6063,2.6072,2.6036,2.6013,2.6007,2.5948,2.5937,2.5939,2.5913,2.5897,2.5907,2.5868,2.5871,2.5924,2.5934,2.5943,2.5949,2.5833,0,0,0,0,0,2.6249,2.624,2.6184,2.6196,2.6183,2.613,2.612,2.6086,2.6053,2.604,2.6002,2.5971,2.5953,2.5942,2.5923,2.5934,2.5921,2.5944,2.5953,2.5961,2.5963,2.5965,2.5974,2.5878,2.5878,2.5878,0,0,2.6287,2.6251,2.6249,2.6212,2.6185,2.6176,2.6121,2.6113,2.6105,2.6038,2.6032,2.6004,2.5964,2.5968,2.5967,2.5946,2.5987,2.5965,2.5972,2.597,2.597,2.5979,2.5988,2.588,2.588,2.5879,0,0,2.6352,2.6325,2.6331,2.6306,2.6267,2.6231,2.6233,2.6183,2.6161,2.6154,2.6103,2.6092,2.6063,2.6037,2.602,2.6073,2.6035,2.6069,2.6115,2.6117,2.6125,2.6131,2.6149,2.6156,2.6072,2.6072,2.6072,0,2.6404,2.6389,2.6339,2.6334,2.6319,2.6259,2.6264,2.6241,2.6197,2.6187,2.6164,2.6125,2.6095,2.609,2.6103,2.6092,2.6091,2.6074,2.6128,2.6134,2.6139,2.6155,2.6162,2.6076,2.6076,2.6075,2.6075,0,2.6455,2.6445,2.6455,2.6414,2.64,2.64,2.6348,2.6339,2.6306,2.6272,2.6265,2.6226,2.6197,2.6193,2.6161,2.6184,2.6171,2.614,2.6099,2.6154,2.6167,2.6173,2.6082,2.6081,2.6079,2.6078,0,0,2.6567,2.6499,2.6503,2.6483,2.6435,2.6426,2.6423,2.6395,2.6388,2.6359,2.6354,2.633,2.63,2.6281,2.6244,2.6247,2.629,2.6214,2.6212,2.6228,2.631,2.6334,2.6342,2.6264,2.6265,2.6266,2.6313,0,2.6623,2.6615,2.6569,2.6573,2.6563,2.6505,2.6502,2.6472,2.644,2.6425,2.6389,2.6373,2.6335,2.6323,2.6323,2.6285,2.6305,2.6281,2.6257,2.6257,2.6267,2.6349,2.6374,2.642,2.6318,2.6319,2.632,0,2.6686,2.6662,2.6666,2.6617,2.661,2.6609,2.6579,2.6566,2.6529,2.6506,2.6484,2.6443,2.6435,2.6398,2.6384,2.6369,2.6356,2.6336,2.6336,2.6331,2.6291,2.6345,2.6434,2.6441,2.6328,2.6327,2.6327,0,2.6766,2.6734,2.6732,2.6717,2.666,2.666,2.6636,2.6598,2.6584,2.6557,2.6547,2.6519,2.6504,2.6483,2.6435,2.6413,2.6426,2.6386,2.6405,2.6406,2.641,2.641,2.6497,2.6404,2.6404,2.6404,2.6404,0,2.6831,2.6836,2.6767,2.6766,2.6768,2.6715,2.6718,2.6689,2.6655,2.6646,2.6594,2.6586,2.6524,2.6508,2.6471,2.6464,2.6458,2.6437,2.6427,2.6441,2.6444,2.6431,2.6426,2.6406,2.6405,2.6405,2.6405,0,2.6921,2.6875,2.6869,2.6816,2.6802,2.6806,2.6759,2.6755,2.672,2.6709,2.6703,2.6648,2.6626,2.6577,2.6542,2.6517,2.6519,2.6502,2.6532,2.6525,2.6547,2.6545,2.6628,2.6635,2.654,2.6541,2.6542,0,2.6965,2.6967,2.6914,2.6904,2.6883,2.6868,2.6853,2.68,2.6786,2.6744,2.6745,2.672,2.6696,2.6665,2.6621,2.6593,2.6573,2.6604,2.6569,2.6582,2.6572,2.6572,2.6571,2.6612,2.6613,2.6614,2.6615,0,2.7048,2.7025,2.7006,2.6979,2.6963,2.6939,2.6912,2.6907,2.6847,2.6834,2.6812,2.6794,2.6759,2.6734,2.67,2.6673,2.6633,2.6627,2.6629,2.6643,2.666,2.6649,2.6552,2.6625,2.6624,2.6623,2.6623,2.6622,2.7114,2.7113,2.7075,2.7055,2.703,2.7005,2.6998,2.6963,2.6944,2.6912,2.6881,2.6862,2.6823,2.6773,2.6749,2.6732,2.6712,2.6717,2.6717,2.6719,2.6724,2.6664,2.6726,2.6725,2.6725,2.6725,2.6725,0,2.7193,2.7166,2.7149,2.7112,2.7097,2.7062,2.703,2.7019,2.7003,2.6971,2.6949,2.6923,2.6898,2.6852,2.6823,2.6818,2.6799,2.6812,2.6811,2.6805,2.6745,2.6745,2.6827,2.6827,2.6827,2.6827,2.6827,2.6827,2.7232,2.7227,2.72,2.7181,2.7153,2.7135,2.7119,2.7096,2.707,2.7043,2.7023,2.6993,2.6955,2.6922,2.6897,2.6884,2.6875,2.6893,2.6874,2.6819,2.6809,2.68,2.6799,2.6892,2.6892,2.6935,2.6935,2.6936]}]]